Regional Weather Roundup
Issued by NWS

Home | Current Version | Previous Version | Text Only | Print | Product List | Glossary Off
Versions: 1 2 3 4 5 6 7 8 9 10 11 12 13 14 15 16 17 18 19 20 21 22 23 24 25 26 27 28 29 30 31 32 33 34 35 36 37 38 39 40 41 42 43 44 45 46 47 48 49 50

657
ASUS45 KBOU 280510
RWRCO

WEATHER ROUNDUP FOR COLORADO
NATIONAL WEATHER SERVICE DENVER/BOULDER CO
1100 PM MDT SUN MAY 27 2018

NOTE: "FAIR" INDICATES FEW OR NO CLOUDS BELOW 12000 FEET WITH NO
SIGNIFICANT WEATHER AND/OR OBSTRUCTIONS TO VISIBILITY.

COZ001>005-013-030-031-280600-
...NORTHWEST COLORADO...

CITY           SKY/WX    TMP DP  RH WIND       PRES   REMARKS
CRAIG          FAIR      62  33  33 W7        29.98R
HAYDEN         MOCLDY    64  21  19 W6        30.01R
MEEKER         FAIR      61  25  25 CALM      30.01R
RANGELY        FAIR      63  27  26 SW3       29.96R
RABBIT EARS PA CLOUDY    46  18  31 W9        30.27R
STEAMBOAT SPGS FAIR      60  34  37 E6        30.02R
WALDEN         CLOUDY    54  37  54 E21       30.13S
$$

COZ006>008-011-280600-
...WEST CENTRAL VALLEYS...

CITY           SKY/WX    TMP DP  RH WIND       PRES   REMARKS
GRAND JUNCTION FAIR      62  16  16 NE5       29.91R
MONTROSE       FAIR      58  18  21 SE5       30.00R
EAGLE          FAIR      65  18  16 N5        30.04R
RIFLE          FAIR      63  15  15 SE6       29.95R
DELTA          FAIR      66  18  16 NE5       29.94R
NUCLA          FAIR      61  10  13 SE5       30.04R
$$

COZ017>023-064>068-280600-
...SOUTHWEST COLORADO...

CITY           SKY/WX    TMP DP  RH WIND       PRES   REMARKS
DURANGO        FAIR      63  12  13 W8        30.03R
CORTEZ         FAIR      56  19  23 NE5       30.01R
PAGOSA SPRINGS FAIR      53   9  17 CALM      30.10R
TELLURIDE      FAIR      52  13  21 CALM      30.21S
WOLF CREEK PAS MOCLDY    43   9  24 SW6       30.42R
$$

COZ009-010-012-014-032>034-037-058>063-280600-
...CENTRAL COLORADO...

CITY           SKY/WX    TMP DP  RH WIND       PRES   REMARKS
ASPEN          FAIR      51  25  36 VRB3      30.08R
BUENA VISTA    FAIR      54   0  11 W10       30.07F
COPPER MTN     FAIR      50  12  22 W9        30.38S
BERTHOUD PASS  FAIR      34  23  64 MISG      30.40F
COTTONWOOD PAS FAIR      63 -17   4 W8        30.21F
GUNNISON       FAIR      54  20  26 W5        30.09R
GRANBY         FAIR      54  37  54 E3        30.13R
KREMMLING      FAIR      61  41  48 CALM      30.07R
LEADVILLE      FAIR      44  12  27 VRB3      30.22R
MONARCH PASS   FAIR      46   0  14 MISG      30.47R
SALIDA         FAIR      58   3  10 SW10      30.12S
SUNLIGHT       FAIR      46  10  23 NW7       30.31R
WILKERSON PASS FAIR      48   5  17 SW7       30.36R
$$

COZ069>075-280600-
...SAN LUIS VALLEY/SANGRE DE CRISTO MOUNTAINS...

CITY           SKY/WX    TMP DP  RH WIND       PRES   REMARKS
ALAMOSA        FAIR      47  23  38 CALM      30.05R
DEL NORTE      FAIR      56  12  17 W13       30.09S
LA VETA PASS   FAIR      54   3  13 S21G39    30.35R
SAGUACHE       NOT AVBL
$$

COZ035-036-038>040-280600-
...NORTHERN COLORADO FRONT RANGE...

CITY           SKY/WX    TMP DP  RH WIND       PRES   REMARKS
DENVER INTL AP FAIR      58  46  64 N17       29.99R
AURORA         PTCLDY    58  45  62 NW16G23   30.01R
FRONT RANGE AP FAIR      59  48  67 N13G18    29.99R
ERIE MUNI ARPT CLOUDY    64  43  46 N13G21    30.08R
BOULDER MUN AP CLOUDY    63  43  48 N7        30.04R
CENTENNIAL     FAIR      60  45  57 N16       30.02R
BROOMFIELD     CLOUDY    64  43  45 N17       30.06R
FORT COLLINS   CLOUDY    63  46  54 NE14      30.06R
LONGMONT       CLOUDY    67  44  44 N9        30.06R
$$

COZ041-046-047-076>085-087-088-280600-
...PIKES PEAK/PALMER DIVIDE AND SOUTHERN FOOTHILLS...

CITY           SKY/WX    TMP DP  RH WIND       PRES   REMARKS
COLO. SPRINGS  FAIR      65  42  43 N30G45    29.97R
A. F. ACADEMY  FAIR      61  41  48 N21G32    30.02R
SCHRIEVER AFB  NOT AVBL
CHEYENNE MTN   FAIR      64  34  32 NW16G30   29.95R
ELLICOTT         N/A    N/A N/A N/A N14G22    29.97R
FALCON         FAIR      59  40  50 N17G26    30.02R
FORT CARSON    FAIR      66  40  38 N32G41    29.92R
LIMON          FAIR      62  46  55 SE12      29.93R
MONUMENT HILL  FAIR      50  43  76 NW14      30.08R
CANON CITY     CLEAR     70  12  11 W13       29.86R
WALSENBURG     FAIR      57   5  12 S7        29.94R
TRINIDAD       FAIR      69  39  33 S15G24    29.93R
$$

COZ042>045-048>051-090-091-280600-
...NORTHEAST COLORADO...

CITY           SKY/WX    TMP DP  RH WIND       PRES   REMARKS
GREELEY ARPT   CLOUDY    63  49  60 NE18G26   30.01R
AKRON          FAIR      58  55  90 NE17G28   29.94S
BURLINGTON     FAIR      72  55  55 S23G32    29.87R
WRAY           FAIR      64  54  68 NE17G23   29.92S
YUMA           FAIR      57  46  67 NE14      29.93S
STERLING       CLOUDY    59  55  88 NE10G20   29.96F
HOLYOKE        FAIR      63  55  77 NE24G32   29.96S THUNDER
FORT MORGAN    FAIR      60  51  74 NE20G30   29.95R
$$

COZ086-089-092>099-280600-
...SOUTHEAST COLORADO...

CITY           SKY/WX    TMP DP  RH WIND       PRES   REMARKS
PUEBLO         FAIR      64  27  24 N17G23    29.84R
LA JUNTA       FAIR      77  56  48 S37G52    29.81R
LAMAR          FAIR      78  57  48 S33G47    29.78R
SPRINGFIELD      N/A     72  57  59 S24G33    29.91R
$$




USA.gov is the U.S. government's official web portal to all federal, state and local government web resources and services.